Location: Plymouth
(43.7490°N, 87.9770°W)
Time: 23:48:18
(UTC-05:00)

Daily predictions for brighter satellites

Satellite Brightness Start Highest point End
(mag) Time Altitude Azimuth Time Altitude Azimuth Time Altitude Azimuth
BREEZE-M DEB (TANK) 3.9 19:59:39 10° WSW 20:11:57 62° NNW 20:15:26 10° ENE
SJ-6B 2.9 20:08:05 10° SSE 20:12:07 88° WSW 20:16:06 10° NNW
Meteor 2-3 Rocket 4.1 20:07:05 10° N 20:12:27 44° ENE 20:17:49 10° SSE
Cosmos 1939 Rocket 3.1 20:15:06 10° SSE 20:18:51 49° ENE 20:22:39 10° N
Cosmos 1300 4.3 20:15:30 10° SSW 20:19:07 41° WNW 20:22:46 10° N
NOSS 3-3 (A) 4.0 20:15:44 10° SSW 20:21:38 61° ESE 20:28:07 10° NE
NOSS 3-3 (C) 4.0 20:15:51 10° SSW 20:21:44 60° ESE 20:28:12 10° NE
Cosmos 2341 Rocket 4.3 20:15:56 10° SSE 20:22:00 49° E 20:28:04 10° NNE
NOSS 0 Rocket 4.3 20:17:26 10° S 20:23:06 40° ESE 20:28:49 10° NE
Cosmos 2360 Rocket 3.9 20:22:35 10° SW 20:27:48 38° WNW 20:33:04 10° NNE
Cosmos 44 Rocket 4.4 20:24:30 10° SW 20:29:08 49° NW 20:33:56 10° NNE
Cosmos 1980 4.2 20:24:40 10° S 20:29:51 37° ESE 20:35:02 10° NE
Cosmos 1666 Rocket 3.7 20:26:49 10° N 20:31:19 86° W 20:35:46 10° S
Cosmos 1408 3.5 20:32:13 10° NNE 20:35:29 30° ENE 20:38:10 13° SE
Cosmos 220 Rocket 4.0 20:32:01 10° NNW 20:36:22 68° ENE 20:40:37 10° SSE
Cosmos 1933 Rocket 4.1 20:33:10 10° N 20:37:17 38° ENE 20:41:04 12° SE
H-2A R/B 3.5 20:36:33 12° ESE 20:39:41 20° ENE 20:43:18 10° NNE
Cosmos 2333 Rocket 2.1 20:34:55 10° SSW 20:40:32 73° ESE 20:46:12 10° NNE
ERS-2 2.9 20:37:23 10° S 20:40:58 53° WSW 20:44:36 10° NNW
Sich 1 3.6 20:37:06 10° NNW 20:41:19 60° W 20:45:30 10° S
Resurs 1-3 3.6 20:37:19 10° SSE 20:41:42 84° ENE 20:46:07 10° NNW
Cosmos 1151 Rocket 3.4 20:38:12 10° SSE 20:42:13 42° E 20:46:15 10° NNE
Cosmos 1455 2.1 20:38:45 10° S 20:42:34 75° E 20:46:26 10° NNE
Cosmos 1844 Rocket 3.5 20:37:16 10° NW 20:42:45 51° WSW 20:48:12 10° S
USA 186 1.8 20:41:26 10° S 20:43:36 47° W 20:45:50 10° NNW
Meteor 2-21 Rocket 4.5 20:37:32 10° S 20:43:40 86° E 20:49:53 10° N
Meteor 1-27 4.2 20:38:06 10° S 20:43:48 73° E 20:49:27 10° NNE
COSMOS 2428 3.3 20:40:06 10° SW 20:45:46 64° WNW 20:51:29 10° NNE
SL-8 Rocket 4.2 20:41:21 10° SSE 20:47:23 51° E 20:53:25 10° NNE
Cosmos 1892 3.4 20:45:14 10° NNW 20:49:04 55° W 20:52:50 10° S
Cosmos 1844 4.3 20:44:03 10° NNW 20:49:39 59° WSW 20:55:16 10° S
Envisat 4.3 20:46:56 10° SSW 20:51:43 42° W 20:56:32 10° NNW
YAOGAN 6 3.3 20:50:11 10° S 20:53:42 54° W 20:57:18 10° NNW
Cosmos 2219 Rocket 2.4 20:49:25 10° SSW 20:55:04 76° WNW 21:00:45 10° NNE
SAR-Lupe-3 4.4 20:53:11 10° NNE 20:56:47 77° ESE 21:00:21 10° S
Cosmos 2237 Rocket 2.2 20:51:37 10° S 20:57:06 58° ESE 21:02:38 10° NNE
SJ-11-01 4.3 20:54:17 10° S 20:58:57 81° WSW 21:03:39 10° NNW
Genesis I 3.5 20:58:07 10° NW 21:02:11 66° WSW 21:05:02 18° SSE
Cosmos 1633 Rocket 4.1 20:59:09 10° NNW 21:03:19 46° W 21:07:28 10° SSW
Cosmos 2056 Rocket 4.1 20:58:37 10° SSE 21:03:30 36° ESE 21:08:24 10° NE
Cosmos 2278 Rocket 2.2 20:59:46 10° NNW 21:05:30 84° ENE 21:09:51 18° SSE
ATLAS 5 CENTAUR R/B 4.5 21:04:08 10° N 21:07:13 15° NNE 21:10:27 10° ENE
Helios 1A 4.5 21:08:42 19° E 21:09:49 21° ENE 21:13:00 10° NNE
Terra 4.0 21:09:24 10° ENE 21:10:42 11° ENE 21:12:00 10° NE
Cosmos 2098 Rocket 3.3 21:07:13 15° SSE 21:10:46 45° E 21:14:25 10° NNE
NOAA 11 4.2 21:05:48 10° SSE 21:11:18 84° WSW 21:16:51 10° NNW
CZ-3B R/B 1.9 21:10:39 10° NW 21:11:59 58° NNW 21:11:59 58° NNW
Cosmos 405 Rocket 4.1 21:15:04 22° E 21:15:04 22° E 21:17:44 10° NE
Cosmos 1515 Rocket 3.7 21:11:22 10° SSW 21:15:49 79° W 21:20:18 10° N
Cosmos 405 3.6 21:13:40 10° N 21:16:56 36° ENE 21:17:29 34° E
Cosmos 864 Rocket 4.4 21:12:47 10° S 21:18:49 63° E 21:24:53 10° NNE
Cosmos 1624 Rocket 4.1 21:15:24 10° S 21:20:25 52° ESE 21:25:27 10° NNE
Cosmos 2228 Rocket 3.3 21:16:32 10° SSW 21:20:54 69° W 21:25:19 10° N
Cosmos 1190 Rocket 4.3 21:17:20 10° NNW 21:22:32 54° ENE 21:24:55 30° SE
Lacrosse 5 3.9 21:22:28 10° NW 21:26:17 21° NNE 21:30:05 10° ENE
Cosmos 1825 2.4 21:23:52 10° NNW 21:27:39 68° W 21:29:46 24° S
SPOT 5 3.7 21:28:34 27° E 21:29:30 29° ENE 21:33:21 10° N
USA 245 4.5 21:34:00 17° NNE 21:34:00 17° NNE 21:34:49 10° NNE
ATLAS 2AS CENTAUR R/B 3.6 21:26:40 10° NW 21:34:12 51° WSW 21:39:43 17° S
ATLAS CENTAUR R/B 2.9 21:33:45 10° WSW 21:37:09 34° NW 21:40:44 10° NNE
SL-8 R/B 3.6 21:35:03 10° WSW 21:39:51 88° SSE 21:43:31 17° ENE
GEOS 3 Rocket 3.9 21:36:30 10° NE 21:41:35 43° ESE 21:43:43 29° S
Resurs 01 Rocket 3.8 21:41:30 10° SW 21:44:59 22° W 21:48:30 10° NW
SL-16 R/B 2.2 21:43:11 18° S 21:47:17 60° ESE 21:52:52 10° NNE
ARGOS 3.2 21:48:17 30° S 21:51:01 76° WSW 21:56:25 10° NNW
Cosmos 2344 3.8 21:44:01 10° S 21:51:09 45° ESE 21:58:47 10° NE
Cosmos 1943 Rocket 4.1 21:49:26 10° N 21:52:41 15° NE 21:54:37 13° ENE
MetOp-B 4.1 21:51:06 34° S 21:53:33 81° WSW 21:58:56 10° NNW
Cosmos 1933 4.3 21:54:28 35° ENE 21:54:28 35° ENE 21:57:23 10° NNE
Cosmos 1727 Rocket 4.0 21:48:35 10° N 21:54:47 80° W 21:58:14 28° S
SL-08 RB Rocket 3.6 21:56:34 48° S 21:57:46 79° WSW 22:02:16 10° NNW
Cosmos 1821 Rocket 4.3 21:57:37 41° SE 21:59:06 48° E 22:05:07 10° NNE
DMSP B5D2-2 4.1 21:58:36 10° NNE 22:03:48 57° E 22:04:25 53° SE
NOSS 3-4 (A) 3.8 21:57:49 10° NW 22:04:53 86° SW 22:07:53 40° SSE
NOSS 3-4 (C) 3.8 21:57:55 10° NW 22:04:59 86° SW 22:07:59 41° SSE
Meteor 2-10 Rocket 4.1 22:01:53 12° SSW 22:07:11 63° WNW 22:13:00 10° N
SPOT 1/Viking Rocket 3.5 22:09:39 58° SE 22:10:31 70° ENE 22:15:45 10° N
USA 81 4.3 22:05:45 10° N 22:10:58 64° W 22:13:03 36° SSW
BREEZE-M DEB (TANK) 4.4 22:09:28 10° NW 22:10:44 20° NNW 22:10:44 20° NNW
ERS-1 Rocket 3.1 22:10:08 45° SSW 22:11:34 68° WSW 22:16:36 10° NNW
Cosmos 614 Rocket 3.9 22:07:02 10° NNW 22:12:17 74° ENE 22:12:58 64° ESE
Cosmos 407 Rocket 3.8 22:08:07 10° NNW 22:13:10 57° WSW 22:14:30 43° SSW
USA 267 3.3 22:07:30 10° ENE 22:13:53 54° SE 22:20:14 10° SSW
Cosmos 2123 Rocket 4.4 22:09:02 10° N 22:15:01 43° ENE 22:15:50 41° E
Cosmos 2297 3.9 22:12:17 10° NNW 22:17:55 66° WSW 22:19:21 48° S
H-2A R/B 2.5 22:17:10 38° SSW 22:18:45 53° W 22:23:38 10° NNW
Cosmos 1441 Rocket 3.8 22:20:34 51° WNW 22:20:34 51° WNW 22:24:15 10° N
Cosmos 2369 Rocket 3.2 22:19:28 10° N 22:24:36 33° NE 22:25:18 32° ENE
Helios 1B rocket 3.0 22:21:59 10° NNE 22:25:09 51° NNE 22:25:09 51° NNE
Landsat 7 3.7 22:29:58 83° NE 22:29:58 83° NE 22:34:40 10° NNW
Cosmos 1707 Rocket 3.9 22:30:05 60° W 22:30:15 60° W 22:34:33 10° N
Cosmos 1535 Rocket 4.4 22:29:31 60° SE 22:30:30 69° E 22:36:51 10° NNE
Spot 1 4.2 22:30:45 86° E 22:30:46 86° ENE 22:35:32 10° NNW
Cosmos 676 Rocket 4.1 22:28:11 10° NNW 22:33:23 62° WSW 22:33:55 59° SW
Cosmos 1241 Rocket 4.4 22:30:12 10° NNW 22:36:32 72° NE 22:37:27 62° ESE
Meteor 1-25 Rocket 4.4 22:33:17 10° N 22:38:56 58° ENE 22:38:56 58° ENE
CZ-2C R/B 4.1 22:36:39 10° NE 22:39:33 25° ENE 22:39:33 25° ENE
Cosmos 2237 Rocket 4.4 22:37:00 10° WSW 22:41:33 25° NW 22:46:08 10° N
CZ-4C R/B 2.9 22:44:41 41° ENE 22:44:41 41° ENE 22:48:41 10° NE
Meteor 1-26 Rocket 4.1 22:43:38 74° ENE 22:43:38 74° ENE 22:48:57 10° NNE
Helios 1A 4.2 22:45:20 36° W 22:45:20 36° W 22:49:04 10° NNW
Cosmos 1452 Rocket 3.5 22:45:53 71° WSW 22:46:15 75° WNW 22:51:32 10° NNE
RESURS DK-1 4.1 22:43:41 10° N 22:46:14 25° NNE 22:46:14 25° NNE
CARTOSAT-1 4.2 22:48:33 54° NNW 22:48:33 54° NNW 22:51:55 10° NNW
Terra 2.0 22:48:17 67° N 22:48:17 67° N 22:52:27 10° NNW
USA 234 3.9 22:45:38 34° E 22:48:09 49° NNE 22:54:24 10° NW
Cosmos 1733 Rocket 3.7 22:44:36 10° N 22:47:58 52° N 22:47:58 52° N
Cosmos 1605 Rocket 4.1 22:49:31 58° E 22:49:31 58° E 22:55:37 10° NNE
Cosmos 1437 Rocket 4.1 22:46:45 10° NNW 22:49:10 37° NNW 22:49:10 37° NNW
ATLAS 5 CENTAUR R/B 3.0 22:47:44 10° NNW 22:53:20 45° NE 22:54:09 42° ENE
Meteor 2-17 Rocket 4.3 22:58:26 81° ESE 22:58:29 81° E 23:04:38 10° N
Cosmos 1850 Rocket 4.2 22:58:52 10° NNW 23:03:21 67° NNW 23:03:21 67° NNW
Meteor 1-20 Rocket 4.2 22:59:38 10° N 23:04:35 74° N 23:04:35 74° N
SPOT 5 4.2 23:07:48 29° W 23:07:48 29° W 23:11:28 10° NW
SeaSat 1 4.4 23:09:02 18° NE 23:09:23 18° NE 23:12:40 10° N
Lacrosse 5 2.6 23:05:19 10° NW 23:09:43 48° NNE 23:09:43 48° NNE
Cosmos 1741 Rocket 4.3 23:06:32 10° NNW 23:11:08 64° NW 23:11:08 64° NW
Cosmos 1934 Rocket 4.2 23:17:32 56° WSW 23:18:09 59° W 23:24:10 10° N
CZ-2C R/B 3.9 23:30:14 43° NW 23:30:14 43° NW 23:33:39 10° NNW
SL-16 R/B 4.3 23:27:19 10° WSW 23:31:50 24° NW 23:36:23 10° N
BREEZE M DEB (TANK) 3.9 23:26:46 10° W 23:36:25 47° N 23:36:54 45° N
Cosmos 1943 Rocket 2.6 23:31:45 10° NNW 23:36:08 57° NNW 23:36:08 57° NNW
H-2A R/B 4.1 23:45:23 25° NNE 23:45:23 25° NNE 23:47:39 10° N
Meteor 1-11 Rocket 4.4 23:41:40 10° N 23:45:57 49° NNE 23:45:57 49° NNE
Cosmos 2100 Rocket 4.3 23:50:48 60° NE 23:50:48 60° NE 23:56:06 10° NNE
